User: anonymous   Login
Location: Ferma
(41.9500°N, 44.5167°E)
Time: 02:56:35
(UTC+00:00)
Language:

CZ-2C R/B - Orbit

View from above orbital plane
View from above orbital plane
View from above satellite
View from above satellite

Ground track
Ground track

The orbit data is extracted from the following two-line orbital elements,

1 43173U 18011E   22026.81359513  .00009742  00000-0  25503-3 0  9996
2 43173  34.9936 313.7550 0134364 317.4006  41.6354 15.29127794223388
Epoch (UTC): 26 January 2022 19:31:34
Eccentricity: 0.0134364
inclination: 34.9936°
perigee height: 386 km
apogee height: 570 km
right ascension of ascending node: 313.7550°
argument of perigee: 317.4006°
revolutions per day: 15.29127794
mean anomaly at epoch: 41.6354°
orbit number at epoch: 22338

The dashed part of the orbit path shows where the satellite is in the earth's shadow,  

DLR